SCP
0 0 0 0 0 0 0 0 0 0 0 0 0 0 0 0 0 0 0 0 0 0 0 0 0 0 0 -0 -0 -0 -0 -0 -0 0 0 0 0 0 0 0 0 0 0 0 0 0 0 0 0
0 0 0 0 0 0 0 0 0 0 0 0 0 0 0 0 0 0 0 0 0 0 0 0 0 0 0 -0 -0 0 0 0 0 0 0 0 0 0 0 0 0 0 0 0 0 0 0 0 0
0 0 0 0 0 0 0 0 0 0 0 0 0 0 0 0 0 0 0 0 0 0 0 0 0 0 0 0 0 0 0 0 0 0 0 0 0 0 0 0 0 0 0 0 0 0 0 0 0
0 0 0 0 0 0 0 0 0 0 0 0 0 0 0 0 0 0 0 0 0 0 0 0 0 0 0 0 0 0 0 0 0 0 0 0 0 0 0 0 0 0 0 0 0 0 0 0 0
0 0 0 0 0 0 0 0 0 0 0 0 0 0 0 0 0 0 0 0 0 0 0 0 0 0 0 0 0 0 0 0 0 0 0 0 0 0 0 0 0 0 0 0 0 0 0 0 0
0 0 0 0 0 0 0 0 0 0 0 0 0 0 0 0 0 0 0 0 0 0 0 0 0 0 0 0 0 0 0 0 0 0 0 0 0 0 0 0 0 0 0 0 0 0 0 0 0
0 0 0 0 0 0 0 0 0 0 0 0 0 0 0 0 0 0 0 0 0 0 0 0 0 0 0 0 0 0 0 0 0 0 0 0 0 0 0 0 0 0 0 0 0 0 0 0 0
0 0 0 0 0 0 0 0 0 0 0 0 0 0 0 0 0 0 0 0 0 0 0 0 0 0 0 0 0 0 0 0 0 0 0 0 0 0 0 0 0 0 0 0 0 0 0 0 0
0 0 0 0 0 0 0 0 0 0 0 0 0 0 0 0 0 0 0 0 0 0 0 0 0 0 0 0 0 0 0 0 0 0 0 0 0 0 0 0 0 0 0 0 0 0 0 0 0
0 0 0 0 0 0 0 0 0 0 0 0 0 0 0 0 0 0 0 0 0 0 0 0 0 0 0 0 0 0 0 0 0 0 0 0 0 0 0 0 0 0 0 0 0 0 0 0 0
0 0 0 0 0 0 0 0 0 0 0 0 0 0 0 0 0 0 0 0 0 0 0 0 0 0 0 0 0 0 0 0 0 0 0 0 0 0 0 0 0 0 0 0 0 0 0 0 0
0 0 0 0 0 0 0 0 0 0 0 0 0 0 0 0 0 0 0 0 0 0 0 0 0 0 0 0 0 0 0 0 0 0 0 0 0 0 0 0 0 0 0 0 0 0 0 0 0
0 0 0 0 0 0 0 0 0 0 0 0 0 0 0 0 0 0 0 0 0 0 0 0 0 0 0 0 0 0 0 0 0 0 0 0 0 0 0 0 0 0 0 0 0 0 0 0 0
0 0 0 0 0 0 0 0 0 0 0 0 0 0 0 0 0 0 0 0 0 0 0 0 0 0 0 0 0 0 0 0 0 0 0 0 0 0 0 0 0 0 0 0 0 0 0 0 0
0 0 0 0 0 0 0 0 0 0 0 0 0 0 0 0 0 0 0 0 0 0 0 0 0 0 0 0 0 0 0 0 0 0 0 0 0 0 0 0 0 0 0 0 0 0 0 0 0
0 0 0 0 0 0 0 0 0 0 0 0 0 0 0 0 0 0 0 0 0 0 0 0 0 0 0 0 0 0 0 0 0 0 0 0 0 0 0 0 0 0 0 0 0 0 0 0 0
0 0 0 0 0 0 0 0 0 0 0 0 0 0 0 0 0 0 0 0 0 0 0 0 0 0 0 0 0 0 0 0 0 0 0 0 0 0 0 0 0 0 0 0 0 0 0 0 0
0 0 0 0 0 0 0 0 0 0 0 0 0 0 0 0 0 0 0 0 0 0 0 0 0 0 0 0 0 0 0 0 0 0 0 0 0 0 0 0 0 0 0 0 0 0 0 0 0
0 0 0 0 0 0 0 0 0 0 0 0 0 0 0 0 0 0 0 0 0 0 0 0 0 0 0 0 0 0 0 0 0 0 0 0 0 0 0 0 0 0 0 0 0 0 0 0 0
0 0 0 -0 0 -0 0 -0 -0 0 0 0 0 0 0 0 0 0 0 0 0 0 0 0 0 0 0 0 0 0 0 0 0 0 0 0 0 0 0 0 0 0 0 0 0 0 0 0 0
-0 0 0 0 -0 0 -0 0 0 0 0 0 0 0 0 0 0 0 0 0 0 0 0 0 0 0 0 0 0 0 0 0 0 0 0 0 0 0 0 0 0 0 0 0 0 0 0 0 0
0 0 0 0 0 0 0 0 0 0 0 0 0 0 0 0 0 0 0 0 0 0 0 0 0 0 0 0 0 0 0 0 0 0 0 0 0 0 0 0 0 0 0 0 0 0 0 0 0
0 0 0 0 0 0 0 0 0 0 0 0 0 0 0 0 0 0 0 0 0 0 0 0 0 0 0 0 0 0 0 0 0 0 0 0 0 0 0 0 0 0 0 0 0 0 0 0 0
0 0 0 0 0 0 0 0 0 0 0 0 0 0 0 0 -0 0 0 0 0 0 0 0 0 0 0 0 0 0 0 0 0 0 0 0 0 0 0 0 0 0 0 0 0 0 0 0 0
0 0 0 0 0 0 0 0 0 0 0 0 0 0 0 -0 -0 0 0 0 0 0 0 0 0 0 0 0 0 0 0 0 0 0 0 0 0 0 0 0 0 0 0 0 0 0 0 0 0
0 0 0 0 0 0 0 0 0 0 0 0 0 0 0 0 -0 0 0 0 0 0 0 0 0 0 0 0 0 0 0 0 0 0 0 0 0 0 0 0 0 0 0 0 0 0 0 0 0
0 0 0 0 0 0 0 0 0 0 0 0 0 0 0 0 0 0 0 0 0 0 0 0 0 0 0 0 0 0 0 0 0 0 0 0 0 0 0 0 0 0 0 0 0 0 0 0 0
0 0 0 0 0 0 0 0 0 0 0 0 0 0 0 0 0 0 0 0 0 0 0 0 0 0 0 0 0 0 0 0 0 0 0 0 0 0 0 0 0 0 0 0 0 0 0 0 0
0 0 0 0 0 0 0 0 0 0 0 0 0 -0 0 0 0 0 0 0 0 0 0 0 0 0 0 0 0 0 0 0 0 0 0 0 0 0 0 0 0 0 0 0 0 0 0 0 0
0 0 0 0 0 0 0 0 0 0 0 0 -0 0 0 0 0 0 0 0 0 0 0 0 0 0 0 0 0 0 0 0 0 0 0 0 0 0 0 0 0 0 0 0 0 0 0 0 0
Wind_Speed_500mb
11 10 9 5 8 6 4 2 2 2 2 6 3 3 7 14 8 5 11 13 20 19 16 16 16 19 21 23 25 20 14 7 2 10 11 10 4 2 2 5 8 11 13 15 16 17 16 15 12
10 6 4 3 7 10 6 1 3 6 11 8 7 4 7 10 9 13 11 21 21 20 17 15 17 24 26 27 20 10 4 9 11 10 9 5 2 2 4 5 8 11 13 14 14 15 15 15 13
5 1 1 1 4 9 2 1 2 7 8 3 4 11 6 7 15 7 17 19 21 19 18 16 18 26 26 22 17 8 4 9 17 10 6 8 7 7 7 7 8 10 13 14 14 14 15 15 15
9 6 7 7 6 1 3 5 4 12 1 5 6 11 9 15 11 16 11 24 22 22 20 18 22 24 21 16 12 10 8 5 9 15 11 11 11 8 7 8 10 12 14 15 16 16 15 15 14
14 6 4 4 6 2 2 8 1 5 4 6 5 8 8 16 18 22 13 26 22 25 25 27 27 21 17 14 11 9 6 3 2 9 11 13 12 10 10 10 12 14 14 16 16 17 17 17 16
6 4 6 10 7 2 2 8 5 1 4 5 4 8 8 20 21 21 19 29 27 29 25 25 23 19 17 15 16 13 9 6 7 7 9 8 9 9 11 12 13 15 16 17 19 18 18 18 18
6 4 4 6 4 5 3 5 1 1 3 6 4 2 5 25 28 25 22 21 20 20 22 23 18 15 11 15 16 15 14 10 8 5 6 5 7 8 12 13 15 16 17 17 18 19 20 20 20
6 4 5 2 2 5 7 2 2 3 5 3 3 3 5 18 32 30 25 22 30 21 20 25 19 19 14 13 13 13 14 7 6 3 5 3 9 8 10 12 13 15 17 19 20 20 21 21 20
8 3 5 4 2 5 10 2 4 2 3 4 1 1 5 12 26 33 31 26 24 17 17 14 13 11 6 8 9 9 11 10 6 8 9 6 9 10 11 13 14 17 19 21 22 23 23 23 22
5 3 4 2 2 2 5 3 7 3 1 4 2 4 8 15 23 30 32 32 26 20 19 17 15 17 15 12 10 8 8 8 12 12 11 9 11 11 14 15 17 21 22 24 24 25 25 23 23
4 5 6 4 5 4 5 2 4 4 4 2 2 7 8 20 22 24 28 33 29 27 24 24 23 23 20 20 16 15 14 15 14 13 13 13 12 13 17 18 22 23 23 24 24 24 23 22 21
6 7 4 4 3 3 3 8 4 5 0 8 10 11 11 21 21 22 20 22 23 24 25 24 24 21 20 20 18 19 19 16 18 16 16 14 15 16 16 19 21 22 23 24 24 24 23 22 20
7 6 7 4 2 2 6 6 6 9 10 9 9 10 12 17 19 19 20 21 21 21 21 21 20 21 22 21 23 23 21 20 19 18 16 15 15 17 18 20 22 23 23 23 24 24 23 21 20
5 4 4 5 8 5 8 4 6 7 4 7 8 11 15 17 16 17 21 22 23 24 23 22 22 22 23 26 26 25 24 22 22 20 18 17 16 18 19 20 22 23 25 24 24 23 21 21 20
6 7 6 8 11 2 8 9 10 3 9 8 12 16 18 19 20 18 21 24 27 28 28 27 27 25 26 27 26 26 26 25 24 23 21 19 18 18 20 21 22 24 25 26 24 23 22 20 20
2 2 4 6 17 4 8 6 1 4 7 11 14 17 19 20 21 23 23 24 28 29 31 32 32 31 30 28 27 28 28 27 27 25 25 22 21 20 21 21 21 23 25 26 24 22 20 19 19
10 2 7 3 13 11 7 11 4 6 11 18 18 18 18 22 24 24 24 25 27 28 31 34 36 35 34 32 30 28 28 30 29 28 27 25 23 22 22 22 23 24 26 26 24 23 21 20 18
9 7 6 9 16 13 14 25 22 22 20 24 19 18 16 18 20 21 21 22 24 27 29 31 36 43 40 38 34 31 30 31 32 32 30 28 26 25 24 24 24 24 25 25 24 22 22 21 19
5 6 12 5 11 17 11 30 35 31 27 30 25 21 20 19 21 21 23 25 27 31 34 36 38 41 48 44 39 36 33 32 34 34 33 31 30 29 27 25 24 24 24 24 24 22 21 22 20
10 8 10 11 10 14 18 42 31 16 11 15 17 17 15 14 18 21 22 25 30 32 31 30 32 39 43 46 42 37 32 32 33 35 35 34 33 31 29 27 25 25 24 24 24 24 22 22 20
10 7 9 9 24 3 30 15 5 6 10 10 5 9 10 13 15 19 21 26 28 29 27 24 23 27 35 40 40 36 33 32 31 33 33 33 32 31 29 27 26 25 24 24 24 24 23 23 24
3 8 6 8 13 7 16 9 5 12 17 26 30 28 17 12 16 20 23 26 28 28 27 24 21 22 28 35 38 35 33 31 33 33 33 32 31 30 30 30 29 29 28 28 28 28 27 25 26
4 5 5 3 3 4 10 4 5 5 11 19 31 33 30 15 18 22 26 29 30 29 27 25 23 23 28 34 36 35 36 36 36 36 37 37 36 35 33 33 32 32 32 32 32 32 32 32 31
9 2 3 3 2 2 4 7 6 8 10 17 34 39 36 31 20 24 28 31 32 32 30 27 25 25 28 33 37 38 38 37 36 36 36 36 36 35 34 33 32 31 31 30 30 30 31 31 33
7 5 5 2 1 2 3 8 11 11 13 14 27 33 36 35 29 30 33 35 38 39 38 35 32 30 30 34 38 40 40 40 40 39 38 36 34 33 31 30 29 31 32 33 34 35 36 37 38
8 5 2 9 6 8 2 10 4 12 11 13 19 31 39 44 45 43 40 41 42 43 43 42 40 39 38 38 40 41 41 41 39 36 33 31 30 28 28 28 30 32 34 36 36 37 39 39 40
3 3 3 11 3 5 5 11 6 9 13 25 39 45 42 48 52 49 46 48 51 52 51 49 47 45 44 43 43 42 40 38 35 33 30 29 28 28 29 30 32 34 36 38 39 39 40 41 42
4 7 1 2 5 8 5 9 13 6 6 16 54 53 63 58 58 57 54 55 56 59 60 59 56 53 50 47 44 41 39 36 34 32 30 29 29 30 32 33 34 35 36 38 39 39 39 41 42
4 3 5 3 3 7 8 7 7 3 11 16 43 51 60 55 55 58 64 66 65 66 65 65 65 61 57 53 48 46 43 40 37 34 32 31 31 31 32 34 35 35 36 38 39 40 40 42 41
2 3 6 6 5 3 5 15 11 14 11 27 44 54 61 59 56 63 75 80 73 75 72 71 70 71 66 58 55 52 48 44 40 37 34 32 32 32 33 34 36 36 36 36 38 39 41 44 45
Wind_Direction_500mb
294 318 339 351 225 242 228 129 336 62 121 11 18 307 52 40 10 11 136 141 140 145 161 167 161 159 169 156 143 133 124 116 330 313 297 273 284 260 301 314 339 340 343 341 344 346 351 354 356
289 324 352 14 248 223 143 29 184 53 115 108 86 20 48 79 65 108 126 140 151 158 165 172 169 157 161 153 144 144 101 16 332 314 303 297 319 285 296 321 322 332 334 333 341 345 347 352 356
238 166 282 170 250 228 145 4 302 122 111 53 98 61 52 73 114 105 147 152 159 163 169 170 172 167 165 171 170 163 98 42 6 345 321 337 326 302 296 302 317 328 331 334 339 345 345 351 349
151 107 57 240 177 132 12 48 71 144 141 59 105 81 70 127 116 136 126 163 165 169 161 164 167 169 175 188 192 192 213 94 12 317 315 328 325 317 305 316 320 325 331 336 338 340 342 345 345
144 120 165 161 194 224 270 352 357 161 98 66 353 105 93 139 134 137 155 174 183 171 174 164 174 178 198 218 215 219 235 204 229 289 294 307 308 310 313 319 325 325 329 331 333 336 336 338 339
111 123 196 211 185 177 69 357 325 317 80 74 80 109 128 166 157 161 170 155 161 181 171 179 200 220 217 218 232 241 243 243 224 267 278 283 287 289 298 312 319 324 329 329 330 331 329 331 330
107 149 137 140 135 175 66 346 81 9 75 57 108 125 145 173 170 171 188 201 213 208 188 183 197 213 217 243 239 236 230 241 261 233 253 269 287 301 304 310 315 315 318 320 324 325 325 326 325
88 94 112 42 139 119 10 34 73 45 96 123 33 107 138 193 178 178 185 197 208 196 186 203 209 230 242 225 250 258 244 238 228 235 238 243 290 292 299 302 311 315 316 321 320 320 319 322 321
82 126 107 99 187 61 9 266 17 56 127 126 109 170 198 193 184 183 193 201 207 214 200 231 223 237 247 255 279 272 242 213 238 251 266 262 277 292 301 305 315 311 316 317 319 318 318 318 319
51 85 107 49 32 14 2 354 329 274 166 141 177 299 238 192 187 182 194 210 220 230 253 267 287 287 288 279 265 249 243 232 242 255 256 271 278 292 300 309 318 313 317 318 318 317 318 319 319
45 78 141 89 23 307 310 187 321 288 190 82 310 292 216 185 190 189 197 208 220 236 255 267 275 274 271 261 260 252 243 248 250 261 269 270 279 288 300 314 312 314 317 318 319 318 317 316 316
118 80 86 129 328 240 286 302 264 265 301 279 288 266 223 192 196 201 201 206 218 232 247 255 259 254 262 256 255 256 252 250 255 254 258 267 279 292 303 309 311 316 318 319 318 316 315 316 315
78 136 124 147 3 281 284 260 292 263 267 273 275 253 218 198 200 200 205 212 218 229 240 249 255 246 250 251 248 251 252 252 252 254 260 268 280 293 305 311 314 316 316 318 317 315 312 310 310
78 108 99 31 358 347 329 288 321 191 289 260 235 217 216 213 216 211 222 229 234 241 250 257 255 252 250 248 249 250 250 253 255 257 261 268 280 296 309 311 313 317 317 319 318 314 311 310 309
124 190 153 32 336 13 324 247 241 268 277 247 227 220 219 223 229 234 234 238 243 247 251 255 256 255 254 253 254 254 254 255 256 259 264 270 281 293 301 309 314 318 320 324 323 318 316 314 316
37 242 234 65 3 26 322 315 39 309 284 249 236 234 232 237 241 248 254 256 258 258 258 257 254 252 253 257 257 255 256 257 258 259 261 267 275 287 297 303 309 314 319 322 319 315 310 310 311
28 4 351 84 39 337 351 316 39 302 290 265 245 238 239 242 246 250 255 260 266 270 267 261 256 253 251 252 255 258 260 258 258 259 260 263 270 280 289 297 303 309 315 317 315 309 303 303 303
360 357 354 338 2 336 309 281 295 278 253 262 255 239 235 238 242 250 261 272 279 280 278 271 262 250 248 249 252 258 262 261 257 255 256 259 266 272 277 281 289 298 306 309 309 302 294 295 300
304 322 326 346 18 329 346 301 287 291 268 262 253 241 235 240 253 265 277 287 294 296 292 280 267 256 247 247 248 252 261 262 257 254 254 255 258 261 265 273 284 295 303 307 307 301 292 293 299
25 356 356 289 21 341 332 292 298 329 327 326 310 279 268 254 264 273 287 298 303 304 302 293 276 256 246 241 241 245 257 258 255 253 253 254 257 261 266 273 282 292 301 309 311 307 300 291 294
49 20 5 322 320 64 330 282 324 45 0 359 352 303 285 264 271 288 299 306 309 310 310 303 285 262 246 237 236 242 251 257 257 254 253 253 254 256 261 270 279 289 297 304 311 314 308 298 293
31 3 320 341 358 346 355 296 343 357 54 54 41 16 332 302 300 303 310 313 313 313 313 309 291 267 246 235 236 241 247 254 258 256 253 251 252 256 263 270 275 280 287 294 299 302 304 303 298
21 349 19 39 74 225 360 247 293 356 32 16 10 10 8 328 304 305 308 311 313 315 315 312 299 275 254 243 242 245 251 257 260 257 254 254 256 258 261 265 270 277 283 288 292 294 294 294 294
314 266 47 99 139 132 20 348 287 27 344 351 359 2 358 353 320 309 311 313 314 313 310 305 295 278 263 253 248 249 254 260 264 262 258 255 256 258 259 263 269 275 281 286 290 292 292 292 291
341 304 325 328 356 305 60 268 272 360 18 356 347 351 7 7 358 333 319 314 312 311 308 302 292 279 265 256 251 250 253 257 258 257 255 253 252 255 260 267 273 279 283 286 289 290 289 289 288
31 2 32 301 297 326 140 240 106 349 16 44 38 20 13 6 358 345 328 315 311 307 304 299 291 280 270 262 258 255 255 257 256 253 252 253 256 261 267 273 280 284 287 289 289 288 288 288 288
94 93 95 102 98 259 300 274 263 138 51 56 25 6 2 358 356 346 334 322 313 307 302 295 286 278 270 264 260 257 255 252 250 250 252 256 263 271 278 282 286 289 290 291 291 290 289 289 287
12 121 199 101 279 273 234 274 269 241 12 13 2 360 4 359 355 353 346 336 325 313 301 293 286 279 273 267 261 257 253 250 249 251 256 262 272 280 286 289 291 292 293 294 295 295 294 292 290
140 186 53 335 272 271 295 237 205 153 55 357 343 357 3 3 3 4 1 352 339 328 313 297 284 276 270 264 259 256 253 250 250 254 262 270 277 283 288 293 296 297 296 294 294 294 293 293 293
300 252 207 227 231 241 315 274 48 92 49 349 357 6 360 356 358 354 348 343 335 329 320 309 291 274 267 261 258 255 252 251 255 260 266 273 279 286 291 294 294 293 292 293 294 294 295 296 296
Wind_Speed_850mb
11 10 9 5 8 6 4 2 2 2 2 6 3 3 7 14 8 5 11 13 20 19 16 16 16 19 21 23 25 20 14 7 2 10 11 10 4 2 2 5 8 11 13 15 16 17 16 15 12
10 6 4 3 7 10 6 1 3 6 11 8 7 4 7 10 9 13 11 21 21 20 17 15 17 24 26 27 20 10 4 9 11 10 9 5 2 2 4 5 8 11 13 14 14 15 15 15 13
5 1 1 1 4 9 2 1 2 7 8 3 4 11 6 7 15 7 17 19 21 19 18 16 18 26 26 22 17 8 4 9 17 10 6 8 7 7 7 7 8 10 13 14 14 14 15 15 15
9 6 7 7 6 1 3 5 4 12 1 5 6 11 9 15 11 16 11 24 22 22 20 18 22 24 21 16 12 10 8 5 9 15 11 11 11 8 7 8 10 12 14 15 16 16 15 15 14
14 6 4 4 6 2 2 8 1 5 4 6 5 8 8 16 18 22 13 26 22 25 25 27 27 21 17 14 11 9 6 3 2 9 11 13 12 10 10 10 12 14 14 16 16 17 17 17 16
6 4 6 10 7 2 2 8 5 1 4 5 4 8 8 20 21 21 19 29 27 29 25 25 23 19 17 15 16 13 9 6 7 7 9 8 9 9 11 12 13 15 16 17 19 18 18 18 18
6 4 4 6 4 5 3 5 1 1 3 6 4 2 5 25 28 25 22 21 20 20 22 23 18 15 11 15 16 15 14 10 8 5 6 5 7 8 12 13 15 16 17 17 18 19 20 20 20
6 4 5 2 2 5 7 2 2 3 5 3 3 3 5 18 32 30 25 22 30 21 20 25 19 19 14 13 13 13 14 7 6 3 5 3 9 8 10 12 13 15 17 19 20 20 21 21 20
8 3 5 4 2 5 10 2 4 2 3 4 1 1 5 12 26 33 31 26 24 17 17 14 13 11 6 8 9 9 11 10 6 8 9 6 9 10 11 13 14 17 19 21 22 23 23 23 22
5 3 4 2 2 2 5 3 7 3 1 4 2 4 8 15 23 30 32 32 26 20 19 17 15 17 15 12 10 8 8 8 12 12 11 9 11 11 14 15 17 21 22 24 24 25 25 23 23
4 5 6 4 5 4 5 2 4 4 4 2 2 7 8 20 22 24 28 33 29 27 24 24 23 23 20 20 16 15 14 15 14 13 13 13 12 13 17 18 22 23 23 24 24 24 23 22 21
6 7 4 4 3 3 3 8 4 5 0 8 10 11 11 21 21 22 20 22 23 24 25 24 24 21 20 20 18 19 19 16 18 16 16 14 15 16 16 19 21 22 23 24 24 24 23 22 20
7 6 7 4 2 2 6 6 6 9 10 9 9 10 12 17 19 19 20 21 21 21 21 21 20 21 22 21 23 23 21 20 19 18 16 15 15 17 18 20 22 23 23 23 24 24 23 21 20
5 4 4 5 8 5 8 4 6 7 4 7 8 11 15 17 16 17 21 22 23 24 23 22 22 22 23 26 26 25 24 22 22 20 18 17 16 18 19 20 22 23 25 24 24 23 21 21 20
6 7 6 8 11 2 8 9 10 3 9 8 12 16 18 19 20 18 21 24 27 28 28 27 27 25 26 27 26 26 26 25 24 23 21 19 18 18 20 21 22 24 25 26 24 23 22 20 20
2 2 4 6 17 4 8 6 1 4 7 11 14 17 19 20 21 23 23 24 28 29 31 32 32 31 30 28 27 28 28 27 27 25 25 22 21 20 21 21 21 23 25 26 24 22 20 19 19
10 2 7 3 13 11 7 11 4 6 11 18 18 18 18 22 24 24 24 25 27 28 31 34 36 35 34 32 30 28 28 30 29 28 27 25 23 22 22 22 23 24 26 26 24 23 21 20 18
9 7 6 9 16 13 14 25 22 22 20 24 19 18 16 18 20 21 21 22 24 27 29 31 36 43 40 38 34 31 30 31 32 32 30 28 26 25 24 24 24 24 25 25 24 22 22 21 19
5 6 12 5 11 17 11 30 35 31 27 30 25 21 20 19 21 21 23 25 27 31 34 36 38 41 48 44 39 36 33 32 34 34 33 31 30 29 27 25 24 24 24 24 24 22 21 22 20
10 8 10 11 10 14 18 42 31 16 11 15 17 17 15 14 18 21 22 25 30 32 31 30 32 39 43 46 42 37 32 32 33 35 35 34 33 31 29 27 25 25 24 24 24 24 22 22 20
10 7 9 9 24 3 30 15 5 6 10 10 5 9 10 13 15 19 21 26 28 29 27 24 23 27 35 40 40 36 33 32 31 33 33 33 32 31 29 27 26 25 24 24 24 24 23 23 24
3 8 6 8 13 7 16 9 5 12 17 26 30 28 17 12 16 20 23 26 28 28 27 24 21 22 28 35 38 35 33 31 33 33 33 32 31 30 30 30 29 29 28 28 28 28 27 25 26
4 5 5 3 3 4 10 4 5 5 11 19 31 33 30 15 18 22 26 29 30 29 27 25 23 23 28 34 36 35 36 36 36 36 37 37 36 35 33 33 32 32 32 32 32 32 32 32 31
9 2 3 3 2 2 4 7 6 8 10 17 34 39 36 31 20 24 28 31 32 32 30 27 25 25 28 33 37 38 38 37 36 36 36 36 36 35 34 33 32 31 31 30 30 30 31 31 33
7 5 5 2 1 2 3 8 11 11 13 14 27 33 36 35 29 30 33 35 38 39 38 35 32 30 30 34 38 40 40 40 40 39 38 36 34 33 31 30 29 31 32 33 34 35 36 37 38
8 5 2 9 6 8 2 10 4 12 11 13 19 31 39 44 45 43 40 41 42 43 43 42 40 39 38 38 40 41 41 41 39 36 33 31 30 28 28 28 30 32 34 36 36 37 39 39 40
3 3 3 11 3 5 5 11 6 9 13 25 39 45 42 48 52 49 46 48 51 52 51 49 47 45 44 43 43 42 40 38 35 33 30 29 28 28 29 30 32 34 36 38 39 39 40 41 42
4 7 1 2 5 8 5 9 13 6 6 16 54 53 63 58 58 57 54 55 56 59 60 59 56 53 50 47 44 41 39 36 34 32 30 29 29 30 32 33 34 35 36 38 39 39 39 41 42
4 3 5 3 3 7 8 7 7 3 11 16 43 51 60 55 55 58 64 66 65 66 65 65 65 61 57 53 48 46 43 40 37 34 32 31 31 31 32 34 35 35 36 38 39 40 40 42 41
2 3 6 6 5 3 5 15 11 14 11 27 44 54 61 59 56 63 75 80 73 75 72 71 70 71 66 58 55 52 48 44 40 37 34 32 32 32 33 34 36 36 36 36 38 39 41 44 45
Wind_Direction_850mb
294 318 339 351 225 242 228 129 336 62 121 11 18 307 52 40 10 11 136 141 140 145 161 167 161 159 169 156 143 133 124 116 330 313 297 273 284 260 301 314 339 340 343 341 344 346 351 354 356
289 324 352 14 248 223 143 29 184 53 115 108 86 20 48 79 65 108 126 140 151 158 165 172 169 157 161 153 144 144 101 16 332 314 303 297 319 285 296 321 322 332 334 333 341 345 347 352 356
238 166 282 170 250 228 145 4 302 122 111 53 98 61 52 73 114 105 147 152 159 163 169 170 172 167 165 171 170 163 98 42 6 345 321 337 326 302 296 302 317 328 331 334 339 345 345 351 349
151 107 57 240 177 132 12 48 71 144 141 59 105 81 70 127 116 136 126 163 165 169 161 164 167 169 175 188 192 192 213 94 12 317 315 328 325 317 305 316 320 325 331 336 338 340 342 345 345
144 120 165 161 194 224 270 352 357 161 98 66 353 105 93 139 134 137 155 174 183 171 174 164 174 178 198 218 215 219 235 204 229 289 294 307 308 310 313 319 325 325 329 331 333 336 336 338 339
111 123 196 211 185 177 69 357 325 317 80 74 80 109 128 166 157 161 170 155 161 181 171 179 200 220 217 218 232 241 243 243 224 267 278 283 287 289 298 312 319 324 329 329 330 331 329 331 330
107 149 137 140 135 175 66 346 81 9 75 57 108 125 145 173 170 171 188 201 213 208 188 183 197 213 217 243 239 236 230 241 261 233 253 269 287 301 304 310 315 315 318 320 324 325 325 326 325
88 94 112 42 139 119 10 34 73 45 96 123 33 107 138 193 178 178 185 197 208 196 186 203 209 230 242 225 250 258 244 238 228 235 238 243 290 292 299 302 311 315 316 321 320 320 319 322 321
82 126 107 99 187 61 9 266 17 56 127 126 109 170 198 193 184 183 193 201 207 214 200 231 223 237 247 255 279 272 242 213 238 251 266 262 277 292 301 305 315 311 316 317 319 318 318 318 319
51 85 107 49 32 14 2 354 329 274 166 141 177 299 238 192 187 182 194 210 220 230 253 267 287 287 288 279 265 249 243 232 242 255 256 271 278 292 300 309 318 313 317 318 318 317 318 319 319
45 78 141 89 23 307 310 187 321 288 190 82 310 292 216 185 190 189 197 208 220 236 255 267 275 274 271 261 260 252 243 248 250 261 269 270 279 288 300 314 312 314 317 318 319 318 317 316 316
118 80 86 129 328 240 286 302 264 265 301 279 288 266 223 192 196 201 201 206 218 232 247 255 259 254 262 256 255 256 252 250 255 254 258 267 279 292 303 309 311 316 318 319 318 316 315 316 315
78 136 124 147 3 281 284 260 292 263 267 273 275 253 218 198 200 200 205 212 218 229 240 249 255 246 250 251 248 251 252 252 252 254 260 268 280 293 305 311 314 316 316 318 317 315 312 310 310
78 108 99 31 358 347 329 288 321 191 289 260 235 217 216 213 216 211 222 229 234 241 250 257 255 252 250 248 249 250 250 253 255 257 261 268 280 296 309 311 313 317 317 319 318 314 311 310 309
124 190 153 32 336 13 324 247 241 268 277 247 227 220 219 223 229 234 234 238 243 247 251 255 256 255 254 253 254 254 254 255 256 259 264 270 281 293 301 309 314 318 320 324 323 318 316 314 316
37 242 234 65 3 26 322 315 39 309 284 249 236 234 232 237 241 248 254 256 258 258 258 257 254 252 253 257 257 255 256 257 258 259 261 267 275 287 297 303 309 314 319 322 319 315 310 310 311
28 4 351 84 39 337 351 316 39 302 290 265 245 238 239 242 246 250 255 260 266 270 267 261 256 253 251 252 255 258 260 258 258 259 260 263 270 280 289 297 303 309 315 317 315 309 303 303 303
360 357 354 338 2 336 309 281 295 278 253 262 255 239 235 238 242 250 261 272 279 280 278 271 262 250 248 249 252 258 262 261 257 255 256 259 266 272 277 281 289 298 306 309 309 302 294 295 300
304 322 326 346 18 329 346 301 287 291 268 262 253 241 235 240 253 265 277 287 294 296 292 280 267 256 247 247 248 252 261 262 257 254 254 255 258 261 265 273 284 295 303 307 307 301 292 293 299
25 356 356 289 21 341 332 292 298 329 327 326 310 279 268 254 264 273 287 298 303 304 302 293 276 256 246 241 241 245 257 258 255 253 253 254 257 261 266 273 282 292 301 309 311 307 300 291 294
49 20 5 322 320 64 330 282 324 45 0 359 352 303 285 264 271 288 299 306 309 310 310 303 285 262 246 237 236 242 251 257 257 254 253 253 254 256 261 270 279 289 297 304 311 314 308 298 293
31 3 320 341 358 346 355 296 343 357 54 54 41 16 332 302 300 303 310 313 313 313 313 309 291 267 246 235 236 241 247 254 258 256 253 251 252 256 263 270 275 280 287 294 299 302 304 303 298
21 349 19 39 74 225 360 247 293 356 32 16 10 10 8 328 304 305 308 311 313 315 315 312 299 275 254 243 242 245 251 257 260 257 254 254 256 258 261 265 270 277 283 288 292 294 294 294 294
314 266 47 99 139 132 20 348 287 27 344 351 359 2 358 353 320 309 311 313 314 313 310 305 295 278 263 253 248 249 254 260 264 262 258 255 256 258 259 263 269 275 281 286 290 292 292 292 291
341 304 325 328 356 305 60 268 272 360 18 356 347 351 7 7 358 333 319 314 312 311 308 302 292 279 265 256 251 250 253 257 258 257 255 253 252 255 260 267 273 279 283 286 289 290 289 289 288
31 2 32 301 297 326 140 240 106 349 16 44 38 20 13 6 358 345 328 315 311 307 304 299 291 280 270 262 258 255 255 257 256 253 252 253 256 261 267 273 280 284 287 289 289 288 288 288 288
94 93 95 102 98 259 300 274 263 138 51 56 25 6 2 358 356 346 334 322 313 307 302 295 286 278 270 264 260 257 255 252 250 250 252 256 263 271 278 282 286 289 290 291 291 290 289 289 287
12 121 199 101 279 273 234 274 269 241 12 13 2 360 4 359 355 353 346 336 325 313 301 293 286 279 273 267 261 257 253 250 249 251 256 262 272 280 286 289 291 292 293 294 295 295 294 292 290
140 186 53 335 272 271 295 237 205 153 55 357 343 357 3 3 3 4 1 352 339 328 313 297 284 276 270 264 259 256 253 250 250 254 262 270 277 283 288 293 296 297 296 294 294 294 293 293 293
300 252 207 227 231 241 315 274 48 92 49 349 357 6 360 356 358 354 348 343 335 329 320 309 291 274 267 261 258 255 252 251 255 260 266 273 279 286 291 294 294 293 292 293 294 294 295 296 296